Simultaneous Nadir Overpasses (SNOs) Predictions

Prediction of SNOs between GOES-16 and METOP-B Satellite Orbit:

Table of predicted SNOs for the next 14.0 days since TLE Epoch: 4/5/2019
Index Date Time (GOES-16) GOES-16 Lat,Lon METOP-B Lat,Lon Distance(km) Time Diff (sec)
1 04/06/2019 02:18:42 0.01, -75.19 0.58, -72.77 276.98 80
2 04/07/2019 14:40:15 -0.01, -75.21 0.44, -77.33 240.90 80
3 04/08/2019 14:16:55 -0.01, -75.21 -0.65, -72.33 328.48 80
4 04/10/2019 02:38:37 0.00, -75.20 -0.37, -76.93 196.37 80
5 04/11/2019 02:15:17 0.00, -75.21 0.71, -71.93 373.05 80
6 04/12/2019 14:36:49 0.00, -75.23 0.30, -76.49 144.50 80
7 04/13/2019 14:13:31 0.00, -75.23 -0.84, -71.50 425.09 80
8 04/15/2019 02:35:12 -0.00, -75.23 -0.18, -76.10 99.27 80
9 04/16/2019 02:11:53 -0.00, -75.24 0.91, -71.10 470.72 80
10 04/17/2019 14:33:25 -0.00, -75.27 0.10, -75.67 45.61 80




NCC Satellite Simultaneous Nadir Overpasses (SNOs) Prediction Service
